Location: Mary A Oil Field
(38.5606°N, 98.9545°W)
Time: 18:24:02
(UTC+00:00)

BREEZE-M DEB (TANK) - Pass Details

Date: 20 January 2020
Orbit: 323 x 14856 km, 49.5° (Epoch: 24 February)

Event Time Altitude Azimuth Distance (km) Brightness Sun altitude
Rises 00:19:25 0° 232° (SW) 3,030 8.5 -7.4°
Reaches altitude 10° 00:22:13 10° 232° (SW) 1,568 6.7 -7.9°
Maximum altitude 00:25:02 81° 146° (SE) 340 1.9 -8.5°
Enters shadow 00:27:01 13° 57° (ENE) 1,121 4.0 -8.8°
